Time,TemperatureF,DewpointF,PressureIn,WindDirection,WindDirectionDegrees,WindSpeedMPH,WindSpeedGustMPH,Humidity,HourlyPrecipIn,Conditions,Clouds,dailyrainin,SoftwareType,DateUTC
2013-12-02 00:02:00,-999.0,-99.9,30.02,NW,304,1.0,2.0,-999,0.00,,,0.00,,2013-12-02 05:02:00,
2013-12-02 00:12:00,-999.0,-99.9,30.02,NW,304,1.0,2.0,-999,0.00,,,0.00,,2013-12-02 05:12:00,
2013-12-02 00:23:00,-999.0,-99.9,30.02,WNW,300,0.0,2.0,-999,0.00,,,0.00,,2013-12-02 05:23:00,
2013-12-02 00:32:00,-999.0,-99.9,30.02,NW,304,0.0,1.0,-999,0.00,,,0.00,,2013-12-02 05:32:00,
2013-12-02 00:43:00,-999.0,-99.9,30.02,NW,304,0.0,1.0,-999,0.00,,,0.00,,2013-12-02 05:43:00,
2013-12-02 00:53:00,-999.0,-99.9,30.01,NW,304,0.0,0.0,-999,0.00,,,0.00,,2013-12-02 05:53:00,
2013-12-02 01:02:00,-999.0,-99.9,30.01,NW,304,0.0,0.0,-999,0.00,,,0.00,,2013-12-02 06:02:00,
2013-12-02 01:12:00,-999.0,-99.9,30.01,NW,304,0.0,0.0,-999,0.00,,,0.00,,2013-12-02 06:12:00,
2013-12-02 01:22:00,-999.0,-99.9,30.01,WNW,301,0.0,1.0,-999,0.00,,,0.00,,2013-12-02 06:22:00,
2013-12-02 01:32:00,-999.0,-99.9,30.01,NW,314,0.0,1.0,-999,0.00,,,0.00,,2013-12-02 06:32:00,
2013-12-02 01:42:00,-999.0,-99.9,30.01,NW,314,0.0,1.0,-999,0.00,,,0.00,,2013-12-02 06:42:00,
2013-12-02 01:52:00,-999.0,-99.9,30.00,NW,319,0.0,1.0,-999,0.00,,,0.00,,2013-12-02 06:52:00,
2013-12-02 02:01:00,-999.0,-99.9,30.00,WNW,298,0.0,1.0,-999,0.00,,,0.00,,2013-12-02 07:01:00,
2013-12-02 02:12:00,-999.0,-99.9,30.00,WNW,298,0.0,1.0,-999,0.00,,,0.00,,2013-12-02 07:12:00,
2013-12-02 02:22:00,-999.0,-99.9,30.00,NNE,18,0.0,1.0,-999,0.00,,,0.00,,2013-12-02 07:22:00,
2013-12-02 02:32:00,-999.0,-99.9,29.99,NNE,13,0.0,1.0,-999,0.00,,,0.00,,2013-12-02 07:32:00,
2013-12-02 02:42:00,-999.0,-99.9,29.99,NNE,13,0.0,1.0,-999,0.00,,,0.00,,2013-12-02 07:42:00,
2013-12-02 02:52:00,-999.0,-99.9,29.98,North,6,0.0,1.0,-999,0.00,,,0.00,,2013-12-02 07:52:00,
2013-12-02 03:01:00,-999.0,-99.9,29.98,NNE,13,0.0,1.0,-999,0.00,,,0.00,,2013-12-02 08:01:00,
2013-12-02 03:12:00,-999.0,-99.9,29.97,NW,322,0.0,1.0,-999,0.00,,,0.00,,2013-12-02 08:12:00,
2013-12-02 03:22:00,-999.0,-99.9,29.97,NW,322,0.0,1.0,-999,0.00,,,0.00,,2013-12-02 08:22:00,
2013-12-02 03:32:00,-999.0,-99.9,29.97,NW,324,0.0,1.0,-999,0.00,,,0.00,,2013-12-02 08:32:00,
2013-12-02 03:42:00,-999.0,-99.9,29.97,NW,324,0.0,1.0,-999,0.00,,,0.00,,2013-12-02 08:42:00,
2013-12-02 03:53:00,-999.0,-99.9,29.97,NW,325,0.0,1.0,-999,0.00,,,0.00,,2013-12-02 08:53:00,
2013-12-02 04:02:00,-999.0,-99.9,29.96,NW,324,0.0,0.0,-999,0.00,,,0.00,,2013-12-02 09:02:00,
2013-12-02 04:11:00,-999.0,-99.9,29.96,NW,324,0.0,0.0,-999,0.00,,,0.00,,2013-12-02 09:11:00,
2013-12-02 04:22:00,-999.0,-99.9,29.96,NW,325,0.0,0.0,-999,0.00,,,0.00,,2013-12-02 09:22:00,
2013-12-02 04:32:00,-999.0,-99.9,29.95,NW,324,0.0,0.0,-999,0.00,,,0.00,,2013-12-02 09:32:00,
2013-12-02 04:43:00,-999.0,-99.9,29.95,NW,306,0.0,0.0,-999,0.00,,,0.00,,2013-12-02 09:43:00,
2013-12-02 04:54:00,-999.0,-99.9,29.95,NW,306,0.0,0.0,-999,0.00,,,0.00,,2013-12-02 09:54:00,
2013-12-02 05:03:00,-999.0,-99.9,29.95,North,349,0.0,1.0,-999,0.00,,,0.00,,2013-12-02 10:03:00,
2013-12-02 05:12:00,-999.0,-99.9,29.95,SSW,210,0.0,0.0,-999,0.00,,,0.00,,2013-12-02 10:12:00,
2013-12-02 05:23:00,-999.0,-99.9,29.95,SSW,210,0.0,0.0,-999,0.00,,,0.00,,2013-12-02 10:23:00,
2013-12-02 05:33:00,-999.0,-99.9,29.95,SE,127,0.0,0.0,-999,0.00,,,0.00,,2013-12-02 10:33:00,
2013-12-02 05:42:00,-999.0,-99.9,29.95,SE,127,0.0,0.0,-999,0.00,,,0.00,,2013-12-02 10:42:00,
2013-12-02 05:52:00,-999.0,-99.9,29.96,West,270,0.0,1.0,-999,0.00,,,0.00,,2013-12-02 10:52:00,
2013-12-02 06:03:00,-999.0,-99.9,29.95,West,270,0.0,0.0,-999,0.00,,,0.00,,2013-12-02 11:03:00,
2013-12-02 06:12:00,-999.0,-99.9,29.95,West,270,0.0,0.0,-999,0.00,,,0.00,,2013-12-02 11:12:00,
2013-12-02 06:22:00,-999.0,-99.9,29.96,NNW,346,0.0,1.0,-999,0.00,,,0.00,,2013-12-02 11:22:00,
2013-12-02 06:33:00,-999.0,-99.9,29.95,North,355,0.0,1.0,-999,0.00,,,0.00,,2013-12-02 11:33:00,
2013-12-02 06:42:00,-999.0,-99.9,29.95,North,355,0.0,1.0,-999,0.00,,,0.00,,2013-12-02 11:42:00,
2013-12-02 06:53:00,-999.0,-99.9,29.95,NNW,330,0.0,0.0,-999,0.00,,,0.00,,2013-12-02 11:53:00,
2013-12-02 07:03:00,-999.0,-99.9,29.95,NW,319,0.0,0.0,-999,0.00,,,0.00,,2013-12-02 12:03:00,
2013-12-02 07:12:00,-999.0,-99.9,29.95,NW,319,0.0,0.0,-999,0.00,,,0.00,,2013-12-02 12:12:00,
2013-12-02 07:22:00,-999.0,-99.9,29.94,NW,319,0.0,0.0,-999,0.00,,,0.00,,2013-12-02 12:22:00,
2013-12-02 07:32:00,-999.0,-99.9,29.94,NNW,327,0.0,2.0,-999,0.00,,,0.00,,2013-12-02 12:32:00,
2013-12-02 07:42:00,-999.0,-99.9,29.94,NNW,327,0.0,2.0,-999,0.00,,,0.00,,2013-12-02 12:42:00,
2013-12-02 07:52:00,-999.0,-99.9,29.94,North,4,0.0,1.0,-999,0.00,,,0.00,,2013-12-02 12:52:00,
2013-12-02 08:02:00,-999.0,-99.9,29.94,South,190,0.0,1.0,-999,0.00,,,0.00,,2013-12-02 13:02:00,
2013-12-02 08:12:00,-999.0,-99.9,29.94,South,190,0.0,1.0,-999,0.00,,,0.00,,2013-12-02 13:12:00,
2013-12-02 08:22:00,-999.0,-99.9,29.94,WNW,291,0.0,1.0,-999,0.00,,,0.00,,2013-12-02 13:22:00,
2013-12-02 08:32:00,-999.0,-99.9,29.94,North,4,0.0,2.0,-999,0.00,,,0.00,,2013-12-02 13:32:00,
2013-12-02 08:42:00,-999.0,-99.9,29.94,North,4,0.0,2.0,-999,0.00,,,0.00,,2013-12-02 13:42:00,
2013-12-02 08:52:00,-999.0,-99.9,29.93,NNW,345,0.0,1.0,-999,0.00,,,0.00,,2013-12-02 13:52:00,
2013-12-02 09:02:00,-999.0,-99.9,29.93,WNW,283,0.0,2.0,-999,0.00,,,0.00,,2013-12-02 14:02:00,
2013-12-02 09:12:00,-999.0,-99.9,29.93,NW,317,0.0,1.0,-999,0.00,,,0.00,,2013-12-02 14:12:00,
2013-12-02 09:22:00,-999.0,-99.9,29.93,NW,317,0.0,1.0,-999,0.00,,,0.00,,2013-12-02 14:22:00,
2013-12-02 09:32:00,-999.0,-99.9,29.93,NW,304,0.0,2.0,-999,0.00,,,0.00,,2013-12-02 14:32:00,
2013-12-02 09:43:00,-999.0,-99.9,29.93,NW,304,0.0,2.0,-999,0.00,,,0.00,,2013-12-02 14:43:00,
2013-12-02 09:52:00,-999.0,-99.9,29.92,North,352,0.0,0.0,-999,0.00,,,0.00,,2013-12-02 14:52:00,
2013-12-02 10:02:00,-999.0,-99.9,29.93,North,11,0.0,2.0,-999,0.00,,,0.00,,2013-12-02 15:02:00,
2013-12-02 10:12:00,-999.0,-99.9,29.93,North,11,0.0,2.0,-999,0.00,,,0.00,,2013-12-02 15:12:00,
2013-12-02 10:22:00,-999.0,-99.9,29.92,ESE,112,0.0,2.0,-999,0.00,,,0.00,,2013-12-02 15:22:00,
2013-12-02 10:34:00,-999.0,-99.9,29.92,NNW,342,0.0,1.0,-999,0.00,,,0.00,,2013-12-02 15:34:00,
2013-12-02 10:43:00,-999.0,-99.9,29.92,NNW,342,0.0,1.0,-999,0.00,,,0.00,,2013-12-02 15:43:00,
2013-12-02 10:54:00,-999.0,-99.9,29.92,WSW,258,0.0,2.0,-999,0.00,,,0.00,,2013-12-02 15:54:00,
2013-12-02 11:03:00,-999.0,-99.9,29.92,NW,306,0.0,2.0,-999,0.00,,,0.00,,2013-12-02 16:03:00,
2013-12-02 11:13:00,-999.0,-99.9,29.91,ESE,114,0.0,2.0,-999,0.00,,,0.00,,2013-12-02 16:13:00,
2013-12-02 11:23:00,-999.0,-99.9,29.91,ESE,114,0.0,2.0,-999,0.00,,,0.00,,2013-12-02 16:23:00,
2013-12-02 11:33:00,-999.0,-99.9,29.91,NE,34,0.0,1.0,-999,0.00,,,0.00,,2013-12-02 16:33:00,
2013-12-02 11:43:00,-999.0,-99.9,29.91,NE,34,0.0,1.0,-999,0.00,,,0.00,,2013-12-02 16:43:00,
2013-12-02 11:53:00,-999.0,-99.9,29.90,NE,46,1.0,4.0,-999,0.00,,,0.00,,2013-12-02 16:53:00,
2013-12-02 12:02:00,-999.0,-99.9,29.89,ENE,64,1.0,4.0,-999,0.00,,,0.00,,2013-12-02 17:02:00,
2013-12-02 12:12:00,-999.0,-99.9,29.89,ENE,64,1.0,4.0,-999,0.00,,,0.00,,2013-12-02 17:12:00,
2013-12-02 12:22:00,-999.0,-99.9,29.88,North,350,0.0,1.0,-999,0.00,,,0.00,,2013-12-02 17:22:00,
2013-12-02 12:33:00,-999.0,-99.9,29.87,North,358,0.0,1.0,-999,0.00,,,0.00,,2013-12-02 17:33:00,
2013-12-02 12:42:00,-999.0,-99.9,29.87,North,358,0.0,1.0,-999,0.00,,,0.00,,2013-12-02 17:42:00,
2013-12-02 12:53:00,-999.0,-99.9,29.86,NW,324,0.0,3.0,-999,0.00,,,0.00,,2013-12-02 17:53:00,
2013-12-02 13:02:00,-999.0,-99.9,29.84,North,352,0.0,4.0,-999,0.00,,,0.00,,2013-12-02 18:02:00,
2013-12-02 13:12:00,-999.0,-99.9,29.84,North,352,0.0,4.0,-999,0.00,,,0.00,,2013-12-02 18:12:00,
2013-12-02 13:22:00,-999.0,-99.9,29.84,West,281,0.0,2.0,-999,0.00,,,0.00,,2013-12-02 18:22:00,
2013-12-02 13:32:00,-999.0,-99.9,29.83,ENE,62,0.0,2.0,-999,0.00,,,0.00,,2013-12-02 18:32:00,
2013-12-02 13:42:00,-999.0,-99.9,29.83,ENE,62,0.0,2.0,-999,0.00,,,0.00,,2013-12-02 18:42:00,
2013-12-02 13:53:00,-999.0,-99.9,29.82,NNE,21,0.0,2.0,-999,0.00,,,0.00,,2013-12-02 18:53:00,
2013-12-02 14:02:00,-999.0,-99.9,29.82,WNW,300,0.0,3.0,-999,0.00,,,0.00,,2013-12-02 19:02:00,
2013-12-02 14:12:00,-999.0,-99.9,29.82,WNW,300,0.0,3.0,-999,0.00,,,0.00,,2013-12-02 19:12:00,
2013-12-02 14:22:00,-999.0,-99.9,29.81,WNW,294,0.0,3.0,-999,0.00,,,0.00,,2013-12-02 19:22:00,
2013-12-02 14:32:00,-999.0,-99.9,29.81,NNE,13,0.0,2.0,-999,0.00,,,0.00,,2013-12-02 19:32:00,
2013-12-02 14:42:00,-999.0,-99.9,29.81,NNE,13,0.0,2.0,-999,0.00,,,0.00,,2013-12-02 19:42:00,
2013-12-02 14:52:00,-999.0,-99.9,29.80,North,354,0.0,3.0,-999,0.00,,,0.00,,2013-12-02 19:52:00,
2013-12-02 15:02:00,-999.0,-99.9,29.81,NNW,342,1.0,3.0,-999,0.00,,,0.00,,2013-12-02 20:02:00,
2013-12-02 15:11:00,-999.0,-99.9,29.81,NNW,342,1.0,3.0,-999,0.00,,,0.00,,2013-12-02 20:11:00,
2013-12-02 15:22:00,-999.0,-99.9,29.81,WNW,294,0.0,2.0,-999,0.00,,,0.00,,2013-12-02 20:22:00,
2013-12-02 15:32:00,-999.0,-99.9,29.82,West,263,0.0,4.0,-999,0.00,,,0.00,,2013-12-02 20:32:00,
2013-12-02 15:42:00,-999.0,-99.9,29.81,West,278,1.0,3.0,-999,0.00,,,0.00,,2013-12-02 20:42:00,
2013-12-02 15:52:00,-999.0,-99.9,29.81,West,278,1.0,3.0,-999,0.00,,,0.00,,2013-12-02 20:52:00,
2013-12-02 16:02:00,-999.0,-99.9,29.82,NW,309,0.0,2.0,-999,0.00,,,0.00,,2013-12-02 21:02:00,
2013-12-02 16:12:00,-999.0,-99.9,29.82,NW,309,0.0,2.0,-999,0.00,,,0.00,,2013-12-02 21:12:00,
2013-12-02 16:22:00,-999.0,-99.9,29.83,North,4,0.0,3.0,-999,0.00,,,0.00,,2013-12-02 21:22:00,
2013-12-02 16:34:00,-999.0,-99.9,29.83,West,266,0.0,4.0,-999,0.00,,,0.00,,2013-12-02 21:34:00,
2013-12-02 16:43:00,-999.0,-99.9,29.83,West,266,0.0,4.0,-999,0.00,,,0.00,,2013-12-02 21:43:00,
2013-12-02 16:53:00,-999.0,-99.9,29.83,WNW,300,0.0,2.0,-999,0.00,,,0.00,,2013-12-02 21:53:00,
2013-12-02 17:03:00,-999.0,-99.9,29.83,NNW,335,0.0,2.0,-999,0.00,,,0.00,,2013-12-02 22:03:00,
2013-12-02 17:13:00,-999.0,-99.9,29.83,NNW,335,0.0,2.0,-999,0.00,,,0.00,,2013-12-02 22:13:00,
2013-12-02 17:23:00,-999.0,-99.9,29.83,WNW,290,0.0,2.0,-999,0.00,,,0.00,,2013-12-02 22:23:00,
2013-12-02 17:33:00,-999.0,-99.9,29.83,WNW,298,0.0,2.0,-999,0.00,,,0.00,,2013-12-02 22:33:00,
2013-12-02 17:43:00,-999.0,-99.9,29.83,WNW,298,0.0,2.0,-999,0.00,,,0.00,,2013-12-02 22:43:00,
2013-12-02 17:53:00,-999.0,-99.9,29.83,NNW,330,0.0,1.0,-999,0.00,,,0.00,,2013-12-02 22:53:00,
2013-12-02 18:02:00,-999.0,-99.9,29.83,NW,316,0.0,1.0,-999,0.00,,,0.00,,2013-12-02 23:02:00,
2013-12-02 18:12:00,-999.0,-99.9,29.83,NW,316,0.0,1.0,-999,0.00,,,0.00,,2013-12-02 23:12:00,
2013-12-02 18:22:00,-999.0,-99.9,29.83,NW,316,0.0,0.0,-999,0.00,,,0.00,,2013-12-02 23:22:00,
2013-12-02 18:33:00,-999.0,-99.9,29.83,NW,316,0.0,0.0,-999,0.00,,,0.00,,2013-12-02 23:33:00,
2013-12-02 18:42:00,-999.0,-99.9,29.83,NW,316,0.0,0.0,-999,0.00,,,0.00,,2013-12-02 23:42:00,
2013-12-02 18:53:00,-999.0,-99.9,29.83,NW,316,0.0,0.0,-999,0.00,,,0.00,,2013-12-02 23:53:00,
2013-12-02 19:02:00,-999.0,-99.9,29.84,NW,316,0.0,0.0,-999,0.00,,,0.00,,2013-12-03 00:02:00,
2013-12-02 19:12:00,-999.0,-99.9,29.84,NW,316,0.0,0.0,-999,0.00,,,0.00,,2013-12-03 00:12:00,
2013-12-02 19:22:00,-999.0,-99.9,29.84,NW,316,0.0,0.0,-999,0.00,,,0.00,,2013-12-03 00:22:00,
2013-12-02 19:32:00,-999.0,-99.9,29.84,West,276,0.0,1.0,-999,0.00,,,0.00,,2013-12-03 00:32:00,
2013-12-02 19:42:00,-999.0,-99.9,29.84,West,276,0.0,1.0,-999,0.00,,,0.00,,2013-12-03 00:42:00,
2013-12-02 19:52:00,-999.0,-99.9,29.84,West,276,0.0,0.0,-999,0.00,,,0.00,,2013-12-03 00:52:00,
2013-12-02 20:01:00,-999.0,-99.9,29.85,West,276,0.0,0.0,-999,0.00,,,0.00,,2013-12-03 01:01:00,
2013-12-02 20:12:00,-999.0,-99.9,29.85,West,276,0.0,0.0,-999,0.00,,,0.00,,2013-12-03 01:12:00,
2013-12-02 20:22:00,-999.0,-99.9,29.86,West,276,0.0,0.0,-999,0.00,,,0.00,,2013-12-03 01:22:00,
2013-12-02 20:32:00,-999.0,-99.9,29.85,West,276,0.0,0.0,-999,0.00,,,0.00,,2013-12-03 01:32:00,
2013-12-02 20:42:00,-999.0,-99.9,29.85,West,276,0.0,0.0,-999,0.00,,,0.00,,2013-12-03 01:42:00,
2013-12-02 20:52:00,-999.0,-99.9,29.86,West,276,0.0,0.0,-999,0.00,,,0.00,,2013-12-03 01:52:00,
2013-12-02 21:02:00,-999.0,-99.9,29.86,West,276,0.0,0.0,-999,0.00,,,0.00,,2013-12-03 02:02:00,
2013-12-02 21:11:00,-999.0,-99.9,29.87,NW,319,0.0,1.0,-999,0.00,,,0.00,,2013-12-03 02:11:00,
2013-12-02 21:22:00,-999.0,-99.9,29.87,NW,319,0.0,1.0,-999,0.00,,,0.00,,2013-12-03 02:22:00,
2013-12-02 21:32:00,-999.0,-99.9,29.87,NW,319,0.0,0.0,-999,0.00,,,0.00,,2013-12-03 02:32:00,
2013-12-02 21:42:00,-999.0,-99.9,29.87,NW,319,0.0,0.0,-999,0.00,,,0.00,,2013-12-03 02:42:00,
2013-12-02 21:52:00,-999.0,-99.9,29.87,WNW,300,0.0,0.0,-999,0.00,,,0.00,,2013-12-03 02:52:00,
2013-12-02 22:02:00,-999.0,-99.9,29.86,WNW,300,0.0,0.0,-999,0.00,,,0.00,,2013-12-03 03:02:00,
2013-12-02 22:11:00,-999.0,-99.9,29.87,WNW,295,0.0,0.0,-999,0.00,,,0.00,,2013-12-03 03:11:00,
2013-12-02 22:22:00,-999.0,-99.9,29.87,WNW,295,0.0,0.0,-999,0.00,,,0.00,,2013-12-03 03:22:00,
2013-12-02 22:34:00,-999.0,-99.9,29.87,WNW,295,0.0,1.0,-999,0.00,,,0.00,,2013-12-03 03:34:00,
2013-12-02 22:43:00,-999.0,-99.9,29.87,WNW,295,0.0,1.0,-999,0.00,,,0.00,,2013-12-03 03:43:00,
2013-12-02 22:54:00,-999.0,-99.9,29.87,WNW,296,0.0,0.0,-999,0.00,,,0.00,,2013-12-03 03:54:00,
2013-12-02 23:03:00,-999.0,-99.9,29.87,WNW,295,0.0,0.0,-999,0.00,,,0.00,,2013-12-03 04:03:00,
2013-12-02 23:13:00,-999.0,-99.9,29.87,WNW,295,0.0,0.0,-999,0.00,,,0.00,,2013-12-03 04:13:00,
2013-12-02 23:23:00,-999.0,-99.9,29.87,WNW,295,0.0,1.0,-999,0.00,,,0.00,,2013-12-03 04:23:00,
2013-12-02 23:33:00,-999.0,-99.9,29.87,WNW,297,0.0,1.0,-999,0.00,,,0.00,,2013-12-03 04:33:00,
2013-12-02 23:43:00,-999.0,-99.9,29.87,WNW,300,0.0,1.0,-999,0.00,,,0.00,,2013-12-03 04:43:00,
2013-12-02 23:52:00,-999.0,-99.9,29.87,WNW,300,0.0,1.0,-999,0.00,,,0.00,,2013-12-03 04:52:00,